This is the latest recevied weather packets stored in our database for station/object WD4DAN-13. If no packets are shown the sender has not sent any weather packets the latest 10 day(s).
| Time | Temp. | Humidity | Pressure | Rain* | Wind** | Luminosity | Snow |
|---|---|---|---|---|---|---|---|
| 1777410573 | 29.44° C | 50% | - | 0 mm | - | - | - |
| 1777410273 | 28.89° C | 55% | - | 0 mm | - | - | - |
| 1777409968 | 28.33° C | 51% | - | 0 mm | - | - | - |
| 1777409663 | 28.89° C | 51% | - | 0 mm | - | - | - |
| 1777409360 | 28.33° C | 52% | - | 0 mm | - | - | - |
| 1777409055 | 28.89° C | 54% | - | 0 mm | - | - | - |
| 1777408752 | 27.22° C | 54% | - | 0 mm | - | - | - |
| 1777408442 | 27.78° C | 53% | - | 0 mm | - | - | - |
| 1777408137 | 27.78° C | 54% | - | 0 mm | - | - | - |
| 1777407832 | 27.78° C | 53% | - | 0 mm | - | - | - |
| 1777407529 | 27.78° C | 52% | - | 0 mm | - | - | - |
| 1777407223 | 27.22° C | 53% | - | 0 mm | - | - | - |
| 1777406918 | 27.22° C | 52% | - | 0 mm | - | - | - |
| 1777406613 | 27.78° C | 52% | - | 0 mm | - | - | - |
| 1777406310 | 27.78° C | 51% | - | 0 mm | - | - | - |
| 1777406008 | 28.33° C | 53% | - | 0 mm | - | - | - |
| 1777405706 | 27.78° C | 55% | - | 0 mm | - | - | - |
| 1777405402 | 27.78° C | 54% | - | 0 mm | - | - | - |
| 1777405099 | 27.22° C | 57% | - | 0 mm | - | - | - |
| 1777404798 | 27.22° C | 58% | - | 0 mm | - | - | - |
| 1777404495 | 27.22° C | 56% | - | 0 mm | - | - | - |
| 1777404191 | 28.33° C | 54% | - | 0 mm | - | - | - |
| 1777403886 | 27.22° C | 56% | - | 0 mm | - | - | - |
| 1777403575 | 27.22° C | 55% | - | 0 mm | - | - | - |
| 1777403270 | 27.22° C | 56% | - | 0 mm | - | - | - |
* Rain latest hour (hover to see other rain measurements)
** Current wind speed in m/s (hover to see current wind gust speed)